Location: Salamanca
(40.9670°N, 5.6500°W)
Time: 23:25:59
(UTC+02:00)

Daily predictions for brighter satellites

Satellite Brightness Start Highest point End
(mag) Time Altitude Azimuth Time Altitude Azimuth Time Altitude Azimuth
USA 234 4.0 21:33:19 10° E 21:39:26 44° NNE 21:45:34 10° NW
Cosmos 1315 Rocket 2.8 21:35:56 10° N 21:40:00 71° E 21:44:00 10° SSE
Milstar 3 4.0 21:34:13 10° WSW 21:42:13 33° S 21:48:11 10° SE
CZ-2D R/B 3.3 21:40:50 10° SSE 21:44:41 66° ENE 21:48:33 10° N
BREEZE-M DEB (TANK) 3.7 21:42:26 10° W 21:45:12 53° N 21:51:24 10° ENE
Molniya-1 3.2 21:43:44 10° SW 21:45:22 55° NW 21:47:30 10° NNE
FALCON 9 R/B 2.1 21:44:09 10° SW 21:46:22 19° S 21:48:05 10° SE
USA 186 1.9 21:44:10 10° SSE 21:46:45 42° ENE 21:49:34 10° N
Cosmos 2242 Rocket 4.0 21:45:54 10° SSE 21:50:09 42° E 21:54:22 10° NNE
Cosmos 2227 4.4 21:45:15 10° NNW 21:51:01 83° WSW 21:56:42 10° SSE
ALOS 3.5 21:47:29 10° S 21:51:56 44° W 21:56:24 10° NNW
Cosmos 1408 3.1 21:51:06 10° N 21:54:37 41° ENE 21:58:05 10° SSE
Envisat 3.5 21:51:57 10° SE 21:56:43 43° ENE 22:01:30 10° N
Cosmos 2142 Rocket 4.4 21:55:57 10° S 22:02:02 73° E 22:08:12 10° N
Cosmos 220 Rocket 4.0 21:59:03 10° NNW 22:03:31 79° ENE 22:07:57 10° SSE
Cosmos 1862 3.9 22:02:24 10° N 22:06:12 39° ENE 22:09:46 11° SSE
Resurs 01 Rocket 2.5 22:05:49 10° S 22:10:08 51° W 22:14:29 10° NNW
Atlas Centaur 2 3.6 22:06:34 10° SW 22:12:20 30° SSE 22:17:45 14° ESE
Meteor 1-29 3.2 22:10:43 10° NNE 22:14:06 48° E 22:17:26 10° S
OAO 3 Rocket 3.8 22:11:54 10° WSW 22:16:29 42° S 22:19:52 17° ESE
Cosmos 2026 Rocket 3.9 22:10:41 10° N 22:16:57 80° E 22:23:04 10° S
Meteor 2-10 Rocket 4.4 22:12:53 10° SSE 22:18:06 36° E 22:23:18 10° NNE
ORS 1 (USA 231) 4.5 22:15:58 10° W 22:19:02 71° S 22:20:51 22° ESE
USA 229 DEB 4.3 22:14:28 10° S 22:20:17 31° ESE 22:26:12 10° NE
USA 229 4.3 22:14:36 10° S 22:20:24 31° ESE 22:26:18 10° NE
Cosmos 1939 Rocket 3.0 22:18:10 13° SSE 22:21:40 58° ENE 22:25:36 10° N
Cosmos 397 4.4 22:17:37 10° NNW 22:21:53 71° ENE 22:24:45 19° SE
BREEZE-M DEB (TANK) 3.9 22:21:08 10° SW 22:25:08 75° SSE 22:35:36 10° ENE
ERS-1 Rocket 3.6 22:22:06 17° SE 22:25:26 38° ENE 22:30:04 10° N
Helios 1B rocket 2.4 22:22:21 10° NNE 22:26:29 89° W 22:30:34 10° SSW
Lacrosse 4 Rocket 1.8 22:22:45 10° NNW 22:27:04 67° WSW 22:30:49 14° SSE
Cosmos 2263 Rocket 2.2 22:21:44 10° NNW 22:27:17 67° ENE 22:31:30 18° SE
YAOGAN 6 3.2 22:27:00 23° SE 22:28:46 37° ENE 22:32:08 10° N
Sich 1 Rocket 4.4 22:25:32 10° N 22:29:37 34° ENE 22:31:43 22° ESE
Cosmos 1908 Rocket 4.2 22:29:48 10° N 22:33:50 36° ENE 22:35:40 25° SE
SeaSat 1 3.9 22:31:45 16° E 22:34:16 23° NE 22:38:05 10° N
Cosmos 2322 Rocket 2.6 22:29:28 10° SSW 22:35:02 67° WNW 22:40:40 10° NNE
COSMOS 2428 3.8 22:37:52 22° ESE 22:38:40 22° E 22:42:58 10° NE
SJ-11-01 4.3 22:37:12 12° S 22:41:27 80° WSW 22:46:08 10° NNW
Cosmos 2360 Rocket 2.2 22:38:42 10° S 22:44:12 57° ESE 22:49:46 10° NNE
Cosmos 1992 Rocket 4.3 22:42:53 10° SSW 22:48:05 69° WNW 22:53:19 10° NNE
Cosmos 1782 Rocket 4.4 22:44:13 10° NNE 22:48:06 30° ENE 22:48:58 28° E
Abrixas rocket 4.4 22:45:44 10° WNW 22:48:25 23° N 22:51:07 10° NE
Cosmos 1733 Rocket 3.7 22:48:26 10° NNW 22:52:49 56° W 22:56:46 12° S
Cosmos 1655 Rocket 4.4 22:46:55 10° NNW 22:53:14 67° W 22:59:31 10° S
NOAA 11 4.4 22:53:08 28° SE 22:55:48 53° ENE 23:01:08 10° N
Cosmos 2322 3.7 22:50:50 10° S 22:56:27 62° ESE 23:02:06 10° NNE
Okean 2 Rocket 4.1 22:52:39 10° NNE 22:56:33 28° ENE 22:57:03 27° E
MetOp-B 4.3 22:55:59 30° SE 22:58:22 54° ENE 23:03:35 10° N
Cosmos 1862 Rocket 4.4 22:56:18 10° SSW 23:00:38 52° W 23:05:02 10° N
ATLAS 5 CENTAUR R/B 2.4 22:57:37 10° NNW 23:03:41 84° NE 23:06:53 32° SE
SL-16 R/B 3.6 22:58:57 10° SW 23:04:15 40° WNW 23:09:36 10° N
Cosmos 2266 Rocket 4.0 22:59:11 10° N 23:05:27 67° E 23:08:46 30° SSE
SPOT 5 3.2 23:04:22 37° ESE 23:05:39 47° ENE 23:10:07 10° N
Okean 1-7 3.4 23:05:42 41° ESE 23:06:01 42° E 23:10:11 10° NNE
Cosmos 1825 4.5 23:03:22 10° NW 23:06:23 23° W 23:09:24 10° SW
ARGOS 3.3 23:10:42 38° SE 23:12:26 55° ENE 23:17:40 10° N
Cosmos 2333 Rocket 3.8 23:20:42 18° ENE 23:20:42 18° ENE 23:22:58 10° NE
Cosmos 1703 Rocket 3.5 23:19:08 36° SSW 23:20:54 84° W 23:25:20 10° N
Cosmos 2237 Rocket 4.3 23:24:07 12° ENE 23:24:07 12° ENE 23:24:42 10° ENE
USA 234 3.5 23:19:11 32° SSE 23:22:16 62° SW 23:28:45 10° NW
Cosmos 2278 Rocket 3.8 23:20:47 10° N 23:24:58 20° NE 23:26:17 19° ENE
Cosmos 968 Rocket 3.6 23:20:46 10° NNW 23:25:56 69° WSW 23:27:46 40° S
Cosmos 1867 3.6 23:22:43 10° NW 23:28:10 74° WSW 23:29:41 48° S
H-2A R/B 2.3 23:29:07 46° E 23:29:35 47° ENE 23:34:19 10° N
Cosmos 1844 Rocket 3.0 23:24:26 10° NNW 23:29:49 47° ENE 23:30:49 43° E
YAOGAN 11 4.1 23:30:59 58° SSW 23:31:46 74° WSW 23:36:07 10° NNW
CZ-4C R/B 4.0 23:26:48 10° NNW 23:32:53 31° NE 23:36:23 22° E
Cosmos 2221 Rocket 3.6 23:34:40 58° SSW 23:35:28 79° W 23:39:55 10° N
SL-08 RB Rocket 3.5 23:41:10 80° SE 23:41:22 84° ENE 23:45:58 10° N
Landsat 7 4.1 23:45:19 51° ENE 23:45:19 51° ENE 23:49:44 10° N
MOS 1-B Rocket 3.9 23:44:42 49° S 23:46:25 82° WSW 23:52:04 10° NNW
Nadezhda 2 Rocket 4.5 23:41:23 10° N 23:47:51 87° E 23:49:37 52° S
Cosmos 2219 Rocket 2.7 23:49:53 43° ENE 23:49:53 43° ENE 23:54:11 10° NE
Meteor 1-27 Rocket 4.4 23:52:43 39° ENE 23:52:43 39° ENE 23:57:07 10° NNE
Cosmos 1782 3.6 23:55:13 47° N 23:55:13 47° N 23:58:09 10° N
